Key West NAF, FL

3:42 AM EDT on March 27, 2017 (GMT -0400)
Key West Naval Air Station

Weather History for KNQX - September, 2012

Change the Weather History Date:

Thursday, September 27, 2012

  Actual Average Record
Temperature  
Mean Temperature 82 °F -  
Max Temperature 88 °F 87 °F 91 °F (1962)
Min Temperature 77 °F 77 °F 72 °F (1987)
Cooling Degree Days 17    
Growing Degree Days 32 (Base 50)    
Moisture  
Dew Point 75 °F    
Average Humidity 79    
Maximum Humidity 89    
Minimum Humidity 66    
Precipitation  
Precipitation 0.75 in - - ()
Sea Level Pressure  
Sea Level Pressure 30.03 in    
Wind  
Wind Speed 5 mph (NE)    
Max Wind Speed 10 mph    
Max Gust Speed 23 mph    
Visibility 9 miles    
Events Rain , Thunderstorm , Tornado    
Averages and records for this station are not official NWS values.
T = Trace of Precipitation, MM = Missing Value Source: NWS Daily Summary

Daily Weather History Graph

Daily Weather History Graph

Search for Another Location

Airport or City:

Trip Planner

Search our weather history database for the weather conditions in past years. The results will help you decide how hot, cold, wet, or windy it might be!

Date:

Astronomy

Sep. 27, 2012 Rise Set
Actual Time 7:17 AM EDT 7:17 PM EDT
Civil Twilight 6:54 AM EDT 7:40 PM EDT
Nautical Twilight 6:28 AM EDT 8:06 PM EDT
Astronomical Twilight 6:01 AM EDT 8:32 PM EDT
Moon 5:39 PM EDT 4:57 AM EDT
Length of Visible Light 12h 45m
Length of Day
11h 59m
Waxing Gibbous, 94% of the Moon is Illuminated
Sep 27
Waxing Gibbous
Sep 29
Full
Oct 8
Last Quarter
Oct 15
New
Oct 21
First Quarter

Hourly Weather History & Observations

Time (EDT) Temp. Heat Index Dew Point Humidity Pressure Visibility Wind Dir Wind Speed Gust Speed Precip Events Conditions
12:53 AM 82.0 °F 87.9 °F 73.9 °F 76% 30.05 in 10.0 mi ENE 3.5 mph - N/A   Clear
1:53 AM 81.0 °F 87.3 °F 75.9 °F 85% 30.04 in 10.0 mi NE 3.5 mph - N/A   Clear
2:53 AM 81.0 °F 87.3 °F 75.9 °F 85% 30.03 in 10.0 mi NE 3.5 mph - N/A   Partly Cloudy
3:53 AM 81.0 °F 87.3 °F 75.9 °F 85% 30.02 in 10.0 mi NE 4.6 mph - N/A   Clear
4:53 AM 81.0 °F 87.9 °F 77.0 °F 88% 30.01 in 10.0 mi Calm Calm - N/A   Clear
5:53 AM 81.0 °F 87.9 °F 77.0 °F 88% 30.03 in 10.0 mi NNE 4.6 mph - N/A   Clear
6:14 AM 80.6 °F 87.1 °F 77.0 °F 89% 30.04 in 10.0 mi NE 3.5 mph - N/A   Mostly Cloudy
6:53 AM 81.0 °F 87.9 °F 77.0 °F 88% 30.04 in 10.0 mi NE 4.6 mph - N/A   Mostly Cloudy
7:53 AM 81.0 °F 87.9 °F 77.0 °F 88% 30.04 in 10.0 mi ENE 3.5 mph - N/A   Mostly Cloudy
8:53 AM 82.9 °F 90.8 °F 75.9 °F 79% 30.06 in 10.0 mi NE 8.1 mph - N/A   Mostly Cloudy
9:53 AM 84.9 °F 95.3 °F 77.0 °F 77% 30.07 in 10.0 mi NNE 6.9 mph - N/A   Mostly Cloudy
10:53 AM 86.0 °F 96.9 °F 77.0 °F 74% 30.08 in 10.0 mi NNE 9.2 mph - N/A   Mostly Cloudy
11:53 AM 84.9 °F 95.3 °F 77.0 °F 77% 30.07 in 10.0 mi NNE 8.1 mph - N/A   Mostly Cloudy
12:30 PM 84.2 °F 94.1 °F 77.0 °F 79% 30.07 in 8.0 mi Variable 4.6 mph - 0.01 in Rain Light Rain
12:49 PM 84.2 °F 94.1 °F 77.0 °F 79% 30.07 in 10.0 mi NE 6.9 mph - 0.01 in   Mostly Cloudy
12:53 PM 84.0 °F 93.7 °F 77.0 °F 79% 30.06 in 10.0 mi NNE 8.1 mph - 0.02 in   Mostly Cloudy
12:57 PM 84.2 °F 92.3 °F 75.2 °F 74% 30.07 in 7.0 mi NNE 4.6 mph - 0.00 in Rain Light Rain
1:37 PM 84.2 °F 94.1 °F 77.0 °F 79% 30.05 in 10.0 mi NNE 5.8 mph - 0.06 in   Mostly Cloudy
1:53 PM 84.0 °F 93.7 °F 77.0 °F 79% 30.04 in 9.0 mi East 3.5 mph - 0.08 in Rain , Thunderstorm Light Thunderstorms and Rain
2:20 PM 80.6 °F 85.4 °F 73.4 °F 79% 30.04 in 1.0 mi SW 8.1 mph - 0.32 in Rain , Thunderstorm Light Thunderstorms and Rain
2:34 PM 82.4 °F 89.5 °F 75.2 °F 79% 30.03 in 4.0 mi NNE 3.5 mph - 0.42 in Rain , Thunderstorm Light Thunderstorms and Rain
2:53 PM 79.0 °F - 72.0 °F 79% 30.02 in 7.0 mi NE 9.2 mph 18.4 mph 0.50 in Rain Light Rain
3:12 PM 82.4 °F 89.5 °F 75.2 °F 79% 30.01 in 7.0 mi NNE 8.1 mph - 0.02 in Rain Light Rain
3:53 PM 86.0 °F 98.3 °F 78.1 °F 77% 29.99 in 10.0 mi NE 4.6 mph - 0.03 in   Mostly Cloudy
4:53 PM 84.9 °F 94.1 °F 75.9 °F 74% 29.99 in 10.0 mi NNE 5.8 mph - N/A   Mostly Cloudy
5:53 PM 87.1 °F 96.3 °F 75.0 °F 67% 29.99 in 10.0 mi North 8.1 mph - N/A   Scattered Clouds
5:56 PM 87.8 °F 97.6 °F 75.2 °F 66% 29.99 in 10.0 mi North 6.9 mph - N/A Thunderstorm , Tornado Funnel Cloud
6:05 PM 87.8 °F 97.6 °F 75.2 °F 66% 30.00 in 10.0 mi North 8.1 mph - N/A Thunderstorm , Tornado Funnel Cloud
6:19 PM 86.0 °F 95.1 °F 75.2 °F 70% 30.00 in 10.0 mi North - - N/A Thunderstorm Thunderstorm
6:40 PM 84.2 °F 92.3 °F 75.2 °F 74% 30.01 in 10.0 mi NNE 5.8 mph - N/A   Mostly Cloudy
6:53 PM 84.9 °F 94.1 °F 75.9 °F 74% 30.00 in 10.0 mi NNE 5.8 mph - N/A   Mostly Cloudy
7:04 PM 84.2 °F 92.3 °F 75.2 °F 74% 30.01 in 10.0 mi NNE 6.9 mph - N/A Thunderstorm Thunderstorm
7:27 PM 78.8 °F - 68.0 °F 69% 30.02 in 10.0 mi ESE 10.4 mph 23.0 mph N/A Thunderstorm Thunderstorm
7:30 PM 78.8 °F - 69.8 °F 74% 30.03 in 7.0 mi ESE 9.2 mph - 0.00 in Rain , Thunderstorm Light Thunderstorms and Rain
7:53 PM 77.0 °F - 71.1 °F 82% 30.02 in 7.0 mi Calm Calm - 0.06 in Rain , Thunderstorm Light Thunderstorms and Rain
8:00 PM 77.0 °F - 71.6 °F 83% 30.03 in 10.0 mi Calm Calm - 0.02 in Rain Light Rain
8:19 PM 78.8 °F - 73.4 °F 83% 30.02 in 10.0 mi Calm Calm - 0.04 in   Mostly Cloudy
8:53 PM 79.0 °F - 73.9 °F 84% 30.01 in 10.0 mi Calm Calm - 0.04 in   Mostly Cloudy
9:20 PM 78.8 °F - 75.2 °F 89% 30.03 in 10.0 mi Calm Calm - 0.00 in Rain Light Rain
9:53 PM 80.1 °F 85.1 °F 75.0 °F 85% 30.04 in 10.0 mi NNE 5.8 mph - 0.02 in Rain Light Rain
10:53 PM 81.0 °F 86.7 °F 75.0 °F 82% 30.04 in 10.0 mi NNE 5.8 mph - 0.00 in   Scattered Clouds
11:53 PM 81.0 °F 86.2 °F 73.9 °F 79% 30.04 in 10.0 mi ENE 5.8 mph - N/A   Partly Cloudy